Volver al catálogo

STARLINK-37239

ActivoComunicacionesVLEO
NORAD 100018·PAYLOAD·🇺🇸 United States

Lanzado Jul 14, 2026 desde Vandenberg Space Force Base

Loading…

Próximos Pases (próximas 24 horas)

TLE

ActualizadoSource: Space-Track

Época: Sep 14, 2026, 20:17 UTC

1 A0018U 26160T   26257.84526248  .00313946  00000-0  18095-2 0  9996
2 A0018  70.0020 210.8318 0003066 270.9120  89.1728 15.77643020 11102

Sigue STARLINK-37239 en tiempo real con AllMySat

Download on the App Store